STARLINK-38379, 100520

Orbit data source: Space-Track

STARLINK-38379, 100520 is a payload satellite owned by SpaceX/Seattle (US) in LEO that was launched on Wed, 26 Aug 2026 UTC launched from the Air Force Western Test Range (AFWTR). Payload-class satellites include a variety of spacecraft equipped with specific instruments for various scientific and technological missions. These include communications satellites like Starlink; space stations such as the ISS; scientific satellites like the Hubble; Earth observation satellites from companies like Planet Labs, Umbra, and HawkEye 360; GPS; miniature CubeSats for education and research; and military/defense satellites.

Loading next visibility...
Identifier
100520, 2026-197U
Orbit
LEO
Country
Flag of USUS
Related business
Manufacturer
SpaceX/Seattle
Mission
Operational spacecraft
Bus & Motor
STARLINK V2MO, Unknown motor
Mass
575 kg wet, ~530 kg dry
Launch date (UTC)
2026-08-26 (2 weeks ago)
Launch vehicle
Unknown
Launch site
Air Force Western Test Range (AFWTR)
Object type
Payload
Rocket body
Debris
Shape & HBR
BOX + PAN, 17.7 m
Radar Cross Section
RCS unknown

Expand to show TLE details & history
Last TLE update: 6 hours ago

TLE from 6 hours ago
0 STARLINK-38379
1 A0520U 26197U   26251.56167563  .00178883  00000-0  85168-3 0  9993
2 A0520  69.9996 155.7220 0003498 269.9359  90.1442 15.82218261  2105
Epoch: 2026-09-08T13:28Z
TLE epoch observation values (Epoch: 2026-09-08T13:28:48.774Z)
Latitude
-0.00003°
Longitude
-34.10755°
Altitude
326.689 km
Speed
7.713 km/s
True Right ascension
10h 22m 53s
True Declination
0° 00' 00"
Sunlit
Object was in daylight at epoch
Visualization orbit readout
Latitude
Unknown
Longitude
Unknown
Altitude
Unknown
Speed
Unknown
Apparent Right ascension
Unknown
Apparent Declination
Unknown
Sunlit
N/A
Visualization observer readout
Local Sidereal Time
11:22:23
Azimuth
Unknown
Elevation
Unknown
Doppler factor
Unknown
Orbital elements
Apogee altitude
324.385 km
Perigee altitude
319.697 km
Semi-major axis
6,700.178 km
Eccentricity
0.00035
Inclination
69.9996°
RAAN
155.722°
Arg. of periapsis
269.9359°
True anomaly
90.18428°
Mean anomaly
90.1442°
Eccentric anomaly
90.16424°
Mean motion
3.95743 °/min
Orbital period
90.97 mins
BSTAR
0.00085168
Loading maneuver chart data...
Computing Atmospheric mass density...
Loading historical data...
Loading historical data...
Loading historical data...
Loading historical data...
Loading historical data...
Loading historical data...
Loading historical data...

Documentation

Showing up to 5 results
|